Regional Weather Roundup
Issued by NWS

Home | Current Version | Previous Version | Text Only | Print | Product List | Glossary Off
Versions: 1 2 3 4 5 6 7 8 9 10 11 12 13 14 15 16 17 18 19 20 21 22 23 24 25 26 27 28 29 30 31 32 33 34 35 36 37 38 39 40 41 42 43 44 45 46 47 48 49 50

111
ASUS43 KMPX 140610
RWRMN
WEATHER ROUNDUP FOR MINNESOTA
NATIONAL WEATHER SERVICE TWIN CITIES/CHANHASSEN MN
1200 AM CST SUN FEB 14 2016


NOTE: "FAIR" INDICATES FEW OR NO CLOUDS BELOW 12,000 FEET WITH NO
SIGNIFICANT WEATHER AND/OR OBSTRUCTIONS TO VISIBILITY. N/A MEANS
CURRENT SKY AND/OR WEATHER CONDITIONS ARE NOT AVAILABLE.

MNZ060>063-068>070-140700-
   Twin Cities Metro

CITY           SKY/WX    TMP DP  RH WIND       PRES   REMARKS
TWIN CITIES    CLOUDY     7  -6  55 SE8       30.30F WCI  -6
6HR MIN TEMP:   6; 6HR MAX TEMP:   7;

ST PAUL        CLOUDY     8  -5  55 SE12      30.32F WCI  -7
CRYSTAL        CLOUDY    10  -6  48 SE9       30.28F WCI  -3
BLAINE         CLOUDY    10  -6  48 SE12      30.28F WCI  -4
LAKEVILLE      CLOUDY     7  -4  61 SE9       30.28F WCI  -7
EDEN PRAIRIE   CLOUDY    10  -4  53 SE9       30.27F WCI  -3
6HR MIN TEMP:   7; 6HR MAX TEMP:  10;

SOUTH ST PAUL  CLOUDY     8  -6  52 SE7       30.31F WCI  -3
LAKE ELMO      CLOUDY     9  -6  52 SE8       30.31F WCI  -4
$$
MNZ001>005-007-008-013>017-022>024-027-028-140700-
   Northwest Minnesota

CITY           SKY/WX    TMP DP  RH WIND       PRES   REMARKS
BEMIDJI        CLOUDY     6  -6  57 SE10      30.12F WCI  -9
HALLOCK        CLOUDY    12   3  67 S24       30.03F WCI  -8
ROSEAU         CLOUDY    10  -2  56 S15       30.09F WCI  -6
WARROAD        CLOUDY     7  -6  56 SE9       30.11F WCI  -7
THIEF RVR FALL CLOUDY    10  -2  56 SE14      30.07F WCI  -5
CROOKSTON      CLOUDY    12   1  62 S22       30.07F WCI  -7
FOSSTON        CLOUDY     9  -6  52 SE13      30.07F WCI  -7
DETROIT LAKES  CLOUDY    10   3  72 S18       30.08F WCI  -8
MOORHEAD       CLOUDY    12   3  67 S25       30.08F WCI  -8
PARK RAPIDS    CLOUDY     9  -5  53 SE16      30.12F WCI  -8
MAHNOMEN       CLOUDY    10  -1  60 SE12G18   30.07F WCI  -5
$$
MNZ006-009>011-018-025>026-140700-
   North Central Minnesota

CITY           SKY/WX    TMP DP  RH WIND       PRES   REMARKS
BAUDETTE       CLOUDY    -1 -16  48 SE14      30.13F WCI -20
FLAG ISLAND    CLOUDY     0 -13  55 SE14      30.12F WCI -19
INTL FALLS     CLOUDY   -10 -18  67 SE7       30.20F WCI -25
6HR MIN TEMP: -12; 6HR MAX TEMP:   0;

WASKISH        CLOUDY     1  -9  60 SE8       30.14F WCI -12
LONGVILLE      CLOUDY     1  -9  60 SE6       30.18S WCI -10
GRAND RAPIDS   CLOUDY    -2 -15  55 SE7       30.20S WCI -16
CRANE LAKE     CLOUDY   -20 -26  76 CALM      30.27F
ORR            CLOUDY    -2 -17  50 CALM      30.18F
COOK           CLOUDY   -17 -22  76 CALM      30.22F
WALKER         CLOUDY     5  -8  56 SE6       30.14F WCI  -6
$$
MNZ012-019>021-037-140700-
   Northeast Minnesota

CITY           SKY/WX    TMP DP  RH WIND       PRES   REMARKS
DULUTH         CLOUDY     0 -15  49 S6        30.26F WCI -12
6HR MIN TEMP:  -2; 6HR MAX TEMP:   6;

ELY            CLOUDY   -18 -24  76 CALM      30.24F
HIBBING        CLOUDY    -7 -16  65 SE6       30.22F WCI -20
EVELETH        CLOUDY   -17 -24  70 CALM      30.25F
DULUTH HARBOR  CLOUDY     1 -11  55 CALM      30.36F
TWO HARBORS    CLOUDY    -9 -18  64 CALM      30.28F
SILVER BAY     CLOUDY   -15 -18  84 CALM      30.29F
GRAND MARAIS     N/A      6   0  76 VRB3      30.35F
G MARAIS ARPRT LGT SNOW   0  -4  85 S5        30.22F WCI -10
$$
MNZ029>031-032-039>041-046>048-054>057-064-140700-
   West Central Minnesota

CITY           SKY/WX    TMP DP  RH WIND       PRES   REMARKS
FERGUS FALLS   CLOUDY    10   3  72 S22       30.13F WCI  -9
WHEATON        LGT SNOW  12   9  85 SE18G25   30.11F WCI  -5
MORRIS         CLOUDY    10   5  79 SE24      30.11F WCI -10
ALEXANDRIA     CLOUDY     9  -1  64 SE17      30.13F WCI  -9
ELBOW LAKE     CLOUDY    10   3  72 SE22G28   30.12F WCI -10
WADENA         CLOUDY     9  -2  61 SE14      30.12F WCI  -8
GLENWOOD       CLOUDY     9   1  72 SE18      30.15S WCI -10
APPLETON       LGT SNOW  12   7  79 SE14      30.14F WCI  -3
BENSON         FLURRIES  10   3  72 S13       30.15F WCI  -5
ORTONVILLE     LGT SNOW  10   7  85 SE16G23   30.10F VSB 1   WCI  -7
MADISON        LGT SNOW  12   9  85 SE20      30.14F WCI  -6
WILLMAR        FLURRIES  10   3  72 SE16G23   30.19F WCI  -7
$$
MNZ033>034-036-042>043-049>051-058-059-140700-
   Central Minnesota

CITY           SKY/WX    TMP DP  RH WIND       PRES   REMARKS
ST CLOUD       CLOUDY     9  -4  55 SE15      30.23F WCI  -8
6HR MIN TEMP:   6; 6HR MAX TEMP:   9;

SAUK CENTRE    CLOUDY     9  -1  65 SE13      30.17F WCI  -7
PAYNESVILLE    CLOUDY    10  -3  57 S14       30.19F WCI  -6
AITKIN         CLOUDY     5 -11  47 SE10      30.21S WCI -10
PINE RIVER     CLOUDY     3  -6  66 SE8       30.20F WCI -10
BRAINERD       CLOUDY     4  -8  57 SE5       30.19F WCI  -5
STAPLES        CLOUDY     9  -6  52 SE8       30.15F WCI  -4
LONG PRAIRIE   CLOUDY     9  -2  61 SE10      30.17F WCI  -6
LITTLE FALLS   CLOUDY    10  -6  48 SE12      30.21F WCI  -4
LITCHFIELD     CLOUDY    10  -2  56 SE9G18    30.21F WCI  -2
BUFFALO        CLOUDY    10  -6  48 SE6       30.27F WCI   0
MAPLE LAKE     CLOUDY    10  -3  56 SE9       30.25F WCI  -2
$$
MNZ037-044-045-052-053-140700-
   East Central Minnesota

CITY           SKY/WX    TMP DP  RH WIND       PRES   REMARKS
PRINCETON      CLOUDY    10  -6  48 SE8       30.25F WCI  -1
MORA           CLOUDY     5  -8  56 SE5       30.28F WCI  -4
CAMBRIDGE      CLOUDY     9  -4  56 CALM      30.26F
MOOSE LAKE     CLOUDY    -9 -17  70 CALM      30.28S
HINCKLEY       FAIR       1 -11  55 SE3       30.29F
CLOQUET        PTCLDY    -2 -17  50 SE5       30.26F WCI -12
MCGREGOR       CLOUDY     1 -11  55 SE7       30.25S WCI -11
$$
MNZ071>073-080-081-089-090-097-098-140700-
   Southwest Minnesota

CITY           SKY/WX    TMP DP  RH WIND       PRES   REMARKS
MONTEVIDEO     LGT SNOW  10   5  79 S13G20    30.18S WCI  -5
GRANITE FALLS  LGT SNOW  13   8  79 SE17G23   30.19S WCI  -4
CANBY          LGT SNOW  15  11  84 E14       30.13F WCI   0
MARSHALL       FLURRIES  11   7  84 S18       30.13F WCI  -7
REDWOOD FALLS  CLOUDY    11   4  73 SE17      30.20F WCI  -6
OLIVIA         CLOUDY    12   5  73 SE20      30.18F WCI  -6
PIPESTONE      LGT SNOW  12   3  67 S15G22    30.07R WCI  -4
WINDOM         LGT SNOW  10   7  85 SE16G23   30.15S WCI  -7
WORTHINGTON    CLOUDY    10   3  72 SE17G24   30.12S WCI  -7
JACKSON        LGT SNOW  12   7  79 S16G22    30.16F WCI  -4
TRACY          PTCLDY    12   8  82 S16G23    30.14S WCI  -4
SLAYTON        LGT SNOW  10   9  93 SE22      30.10F WCI  -9
$$
MNZ065>067-074>077-082>085-091>093-140700-
   South Central Minnesota

CITY           SKY/WX    TMP DP  RH WIND       PRES   REMARKS
MANKATO        CLOUDY    10   0  61 SE16      30.24F WCI  -7
NEW ULM        CLOUDY     9   1  72 SE13      30.22F WCI  -7
ST JAMES       CLOUDY    12   7  79 SE16      30.22F WCI  -4
FAIRMONT       CLOUDY    10   3  72 SE17      30.18F WCI  -7
GLENCOE        CLOUDY    11   0  61 SE12      30.24F WCI  -3
FARIBAULT      CLOUDY    10  -4  52 S8        30.27F WCI  -1
OWATONNA       CLOUDY    10  -2  56 SE14      30.25F WCI  -5
WASECA         CLOUDY    12   1  62 SE14      30.27S WCI  -3
ALBERT LEA     CLOUDY    10   0  61 SE14      30.23F WCI  -5
$$
MNZ078>079-086>088-094>096-140700-
   Southeast Minnesota

CITY           SKY/WX    TMP DP  RH WIND       PRES   REMARKS
ROCHESTER      CLOUDY     6  -4  63 SE13      30.27F WCI -10
6HR MIN TEMP:  -1; 6HR MAX TEMP:   6;

RED WING       CLOUDY     9  -8  47 SE8       30.33F WCI  -4
STANTON        CLOUDY    10  -5  49 SE8       30.28F WCI  -1
DODGE CENTER   CLOUDY     9  -2  61 SE13      30.25F WCI  -7
WINONA         CLOUDY     9  -4  56 CALM      30.39F
AUSTIN         CLOUDY     9  -2  61 SE7       30.26F WCI  -3
PRESTON        CLOUDY     4  -8  57 SE8       30.30F WCI  -9
$$
ABBREVIATIONS USED IN REMARKS
   TC - TEMPERATURES IN CELSIUS
  WCI - WIND CHILL INDEX
   HX - HEAT INDEX
  VSB - VISIBILITY
$$




USA.gov is the U.S. government's official web portal to all federal, state and local government web resources and services.